Time,TemperatureF,DewpointF,PressureIn,WindDirection,WindDirectionDegrees,WindSpeedMPH,WindSpeedGustMPH,Humidity,HourlyPrecipIn,Conditions,Clouds,dailyrainin,SoftwareType,DateUTC
2013-01-24 00:03:00,17.0,8.0,30.15,West,270,5.0,6.0,68,0.00,,,0.00,,2013-01-24 05:03:00,
2013-01-24 00:12:00,17.0,8.0,30.15,West,270,5.0,6.0,68,0.00,,,0.00,,2013-01-24 05:12:00,
2013-01-24 00:22:00,18.0,9.0,30.16,NW,314,5.0,7.0,68,0.00,,,0.00,,2013-01-24 05:22:00,
2013-01-24 00:33:00,18.0,9.0,30.16,NW,314,5.0,7.0,68,0.00,,,0.00,,2013-01-24 05:33:00,
2013-01-24 00:42:00,18.0,9.0,30.16,NW,314,5.0,7.0,68,0.00,,,0.00,,2013-01-24 05:42:00,
2013-01-24 00:52:00,17.0,9.0,30.18,WNW,292,0.0,5.0,70,0.00,,,0.00,,2013-01-24 05:52:00,
2013-01-24 01:02:00,17.0,9.0,30.18,NW,304,3.0,5.0,71,0.00,,,0.00,,2013-01-24 06:02:00,
2013-01-24 01:12:00,17.0,9.0,30.18,NW,304,3.0,5.0,71,0.00,,,0.00,,2013-01-24 06:12:00,
2013-01-24 01:22:00,17.0,10.0,30.19,West,270,0.0,0.0,72,0.00,,,0.00,,2013-01-24 06:22:00,
2013-01-24 01:32:00,17.0,10.0,30.19,West,270,0.0,0.0,72,0.00,,,0.00,,2013-01-24 06:32:00,
2013-01-24 01:42:00,17.0,10.0,30.19,West,270,0.0,0.0,72,0.00,,,0.00,,2013-01-24 06:42:00,
2013-01-24 01:52:00,17.0,10.0,30.21,NNW,337,0.0,0.0,73,0.00,,,0.00,,2013-01-24 06:52:00,
2013-01-24 02:03:00,17.0,10.0,30.23,NE,45,0.0,0.0,73,0.00,,,0.00,,2013-01-24 07:03:00,
2013-01-24 02:12:00,17.0,10.0,30.23,NE,45,0.0,0.0,73,0.00,,,0.00,,2013-01-24 07:12:00,
2013-01-24 02:23:00,17.0,10.0,30.25,North,0,0.0,3.0,73,0.00,,,0.00,,2013-01-24 07:23:00,
2013-01-24 02:33:00,17.0,10.0,30.25,North,0,0.0,3.0,73,0.00,,,0.00,,2013-01-24 07:33:00,
2013-01-24 02:43:00,17.0,10.0,30.25,North,0,0.0,3.0,73,0.00,,,0.00,,2013-01-24 07:43:00,
2013-01-24 02:53:00,16.0,9.0,30.27,WNW,292,0.0,0.0,73,0.00,,,0.00,,2013-01-24 07:53:00,
2013-01-24 03:02:00,16.0,9.0,30.29,NW,315,0.0,0.0,73,0.00,,,0.00,,2013-01-24 08:02:00,
2013-01-24 03:13:00,16.0,9.0,30.29,NW,315,0.0,0.0,73,0.00,,,0.00,,2013-01-24 08:13:00,
2013-01-24 03:23:00,16.0,9.0,30.31,NNW,337,0.0,0.0,73,0.00,,,0.00,,2013-01-24 08:23:00,
2013-01-24 03:33:00,15.0,8.0,30.33,NNW,337,1.0,1.0,73,0.00,,,0.00,,2013-01-24 08:33:00,
2013-01-24 03:43:00,15.0,8.0,30.33,NNW,337,1.0,1.0,73,0.00,,,0.00,,2013-01-24 08:43:00,
2013-01-24 03:53:00,15.0,8.0,30.34,NNW,337,0.0,0.0,73,0.00,,,0.00,,2013-01-24 08:53:00,
2013-01-24 04:03:00,15.0,8.0,30.34,WSW,247,0.0,0.0,72,0.00,,,0.00,,2013-01-24 09:03:00,
2013-01-24 04:13:00,15.0,8.0,30.34,WSW,247,0.0,0.0,72,0.00,,,0.00,,2013-01-24 09:13:00,
2013-01-24 04:23:00,14.0,7.0,30.35,West,270,0.0,0.0,72,0.00,,,0.00,,2013-01-24 09:23:00,
2013-01-24 04:33:00,14.0,7.0,30.35,West,270,0.0,0.0,72,0.00,,,0.00,,2013-01-24 09:33:00,
2013-01-24 04:43:00,14.0,7.0,30.35,West,270,0.0,0.0,72,0.00,,,0.00,,2013-01-24 09:43:00,
2013-01-24 04:53:00,13.0,6.0,30.36,West,270,0.0,0.0,72,0.00,,,0.00,,2013-01-24 09:53:00,
2013-01-24 05:03:00,13.0,5.0,30.37,West,270,0.0,0.0,71,0.00,,,0.00,,2013-01-24 10:03:00,
2013-01-24 05:12:00,13.0,5.0,30.37,West,270,0.0,0.0,71,0.00,,,0.00,,2013-01-24 10:12:00,
2013-01-24 05:23:00,12.0,4.0,30.38,West,270,0.0,0.0,71,0.00,,,0.00,,2013-01-24 10:23:00,
2013-01-24 05:33:00,11.0,3.0,30.39,West,270,0.0,0.0,71,0.00,,,0.00,,2013-01-24 10:33:00,
2013-01-24 05:43:00,11.0,3.0,30.39,West,270,0.0,0.0,71,0.00,,,0.00,,2013-01-24 10:43:00,
2013-01-24 05:53:00,11.0,3.0,30.39,West,270,0.0,0.0,71,0.00,,,0.00,,2013-01-24 10:53:00,
2013-01-24 06:03:00,10.0,3.0,30.40,West,270,0.0,0.0,71,0.00,,,0.00,,2013-01-24 11:03:00,
2013-01-24 06:12:00,10.0,3.0,30.40,West,270,0.0,0.0,71,0.00,,,0.00,,2013-01-24 11:12:00,
2013-01-24 06:23:00,10.0,3.0,30.41,West,270,0.0,0.0,71,0.00,,,0.00,,2013-01-24 11:23:00,
2013-01-24 06:33:00,9.0,2.0,30.42,West,270,0.0,0.0,71,0.00,,,0.00,,2013-01-24 11:33:00,
2013-01-24 06:43:00,9.0,2.0,30.42,West,270,0.0,0.0,71,0.00,,,0.00,,2013-01-24 11:43:00,
2013-01-24 06:53:00,9.0,2.0,30.43,West,270,0.0,0.0,71,0.00,,,0.00,,2013-01-24 11:53:00,
2013-01-24 07:03:00,8.0,1.0,30.43,West,270,0.0,0.0,71,0.00,,,0.00,,2013-01-24 12:03:00,
2013-01-24 07:12:00,8.0,1.0,30.43,West,270,0.0,0.0,71,0.00,,,0.00,,2013-01-24 12:12:00,
2013-01-24 07:23:00,8.0,1.0,30.46,West,270,0.0,0.0,71,0.00,,,0.00,,2013-01-24 12:23:00,
2013-01-24 07:33:00,8.0,1.0,30.46,West,270,0.0,0.0,72,0.00,,,0.00,,2013-01-24 12:33:00,
2013-01-24 07:43:00,8.0,1.0,30.46,West,270,0.0,0.0,72,0.00,,,0.00,,2013-01-24 12:43:00,
2013-01-24 07:53:00,8.0,1.0,30.47,West,270,0.0,0.0,72,0.00,,,0.00,,2013-01-24 12:53:00,
2013-01-24 08:03:00,8.0,1.0,30.48,West,270,0.0,0.0,72,0.00,,,0.00,,2013-01-24 13:03:00,
2013-01-24 08:13:00,8.0,1.0,30.48,West,270,0.0,0.0,72,0.00,,,0.00,,2013-01-24 13:13:00,
2013-01-24 08:23:00,8.0,1.0,30.49,West,270,0.0,0.0,72,0.00,,,0.00,,2013-01-24 13:23:00,
2013-01-24 08:33:00,8.0,1.0,30.50,West,270,0.0,0.0,72,0.00,,,0.00,,2013-01-24 13:33:00,
2013-01-24 08:43:00,8.0,1.0,30.50,West,270,0.0,0.0,72,0.00,,,0.00,,2013-01-24 13:43:00,
2013-01-24 08:53:00,8.0,1.0,30.49,West,270,0.0,0.0,73,0.00,,,0.00,,2013-01-24 13:53:00,
2013-01-24 09:03:00,8.0,1.0,30.50,West,270,0.0,0.0,73,0.00,,,0.00,,2013-01-24 14:03:00,
2013-01-24 09:12:00,8.0,1.0,30.50,West,270,0.0,0.0,73,0.00,,,0.00,,2013-01-24 14:12:00,
2013-01-24 09:23:00,9.0,2.0,30.51,West,270,0.0,0.0,74,0.00,,,0.00,,2013-01-24 14:23:00,
2013-01-24 09:33:00,10.0,3.0,30.53,West,270,0.0,0.0,74,0.00,,,0.00,,2013-01-24 14:33:00,
2013-01-24 09:43:00,10.0,3.0,30.53,West,270,0.0,0.0,74,0.00,,,0.00,,2013-01-24 14:43:00,
2013-01-24 09:53:00,11.0,5.0,30.54,West,270,0.0,0.0,75,0.00,,,0.00,,2013-01-24 14:53:00,
2013-01-24 10:04:00,15.0,9.0,30.55,West,270,0.0,0.0,76,0.00,,,0.00,,2013-01-24 15:04:00,
2013-01-24 10:12:00,15.0,9.0,30.55,West,270,0.0,0.0,76,0.00,,,0.00,,2013-01-24 15:12:00,
2013-01-24 10:23:00,16.0,9.0,30.56,West,270,0.0,0.0,75,0.00,,,0.00,,2013-01-24 15:23:00,
2013-01-24 10:33:00,16.0,9.0,30.56,West,270,0.0,0.0,75,0.00,,,0.00,,2013-01-24 15:33:00,
2013-01-24 10:43:00,17.0,10.0,30.57,NE,45,0.0,0.0,73,0.00,,,0.00,,2013-01-24 15:43:00,
2013-01-24 10:53:00,18.0,11.0,30.57,NE,45,0.0,0.0,72,0.00,,,0.00,,2013-01-24 15:53:00,
2013-01-24 11:04:00,18.0,10.0,30.58,ENE,67,0.0,0.0,71,0.00,,,0.00,,2013-01-24 16:04:00,
2013-01-24 11:12:00,18.0,10.0,30.58,ENE,67,0.0,0.0,71,0.00,,,0.00,,2013-01-24 16:12:00,
2013-01-24 11:23:00,18.0,10.0,30.59,ENE,67,0.0,0.0,70,0.00,,,0.00,,2013-01-24 16:23:00,
2013-01-24 11:33:00,19.0,11.0,30.59,ENE,67,0.0,1.0,70,0.00,,,0.00,,2013-01-24 16:33:00,
2013-01-24 11:43:00,19.0,11.0,30.59,ENE,67,0.0,1.0,70,0.00,,,0.00,,2013-01-24 16:43:00,
2013-01-24 12:02:00,18.0,9.0,30.60,NE,45,1.0,1.0,67,0.00,,,0.00,,2013-01-24 17:02:00,
2013-01-24 12:12:00,18.0,9.0,30.60,NE,45,1.0,1.0,67,0.00,,,0.00,,2013-01-24 17:12:00,
2013-01-24 12:22:00,17.0,7.0,30.60,NE,45,1.0,2.0,64,0.00,,,0.00,,2013-01-24 17:22:00,
2013-01-24 12:32:00,17.0,7.0,30.59,NE,45,0.0,5.0,64,0.00,,,0.00,,2013-01-24 17:32:00,
2013-01-24 12:42:00,17.0,7.0,30.59,NE,45,0.0,5.0,64,0.00,,,0.00,,2013-01-24 17:42:00,
2013-01-24 12:52:00,17.0,7.0,30.57,ENE,67,0.0,1.0,63,0.00,,,0.00,,2013-01-24 17:52:00,
2013-01-24 13:02:00,17.0,6.0,30.57,NE,45,0.0,0.0,62,0.00,,,0.00,,2013-01-24 18:02:00,
2013-01-24 13:12:00,16.0,5.0,30.57,ENE,67,0.0,1.0,61,0.00,,,0.00,,2013-01-24 18:12:00,
2013-01-24 13:23:00,16.0,5.0,30.57,ENE,67,0.0,1.0,61,0.00,,,0.00,,2013-01-24 18:23:00,
2013-01-24 13:33:00,16.0,4.0,30.56,ENE,67,0.0,0.0,59,0.00,,,0.00,,2013-01-24 18:33:00,
2013-01-24 13:42:00,16.0,4.0,30.56,ENE,67,0.0,0.0,59,0.00,,,0.00,,2013-01-24 18:42:00,
2013-01-24 13:53:00,16.0,4.0,30.55,ENE,67,3.0,4.0,58,0.00,,,0.00,,2013-01-24 18:53:00,
2013-01-24 14:02:00,15.0,3.0,30.55,NE,45,0.0,3.0,58,0.00,,,0.00,,2013-01-24 19:02:00,
2013-01-24 14:12:00,15.0,3.0,30.55,ESE,112,0.0,0.0,57,0.00,,,0.00,,2013-01-24 19:12:00,
2013-01-24 14:22:00,15.0,3.0,30.55,ESE,112,0.0,0.0,57,0.00,,,0.00,,2013-01-24 19:22:00,
2013-01-24 14:33:00,16.0,3.0,30.55,NE,45,0.0,0.0,57,0.00,,,0.00,,2013-01-24 19:33:00,
2013-01-24 14:42:00,16.0,3.0,30.54,SE,135,0.0,2.0,56,0.00,,,0.00,,2013-01-24 19:42:00,
2013-01-24 14:53:00,16.0,3.0,30.54,SE,135,0.0,2.0,56,0.00,,,0.00,,2013-01-24 19:53:00,
2013-01-24 15:02:00,16.0,3.0,30.54,SSE,157,0.0,0.0,56,0.00,,,0.00,,2013-01-24 20:02:00,
2013-01-24 15:11:00,16.0,3.0,30.54,East,90,6.0,6.0,55,0.00,,,0.00,,2013-01-24 20:11:00,
2013-01-24 15:22:00,16.0,3.0,30.54,East,90,6.0,6.0,55,0.00,,,0.00,,2013-01-24 20:22:00,
2013-01-24 15:32:00,16.0,3.0,30.54,SE,135,0.0,2.0,55,0.00,,,0.00,,2013-01-24 20:32:00,
2013-01-24 15:42:00,17.0,4.0,30.54,ESE,112,0.0,0.0,55,0.00,,,0.00,,2013-01-24 20:42:00,
2013-01-24 15:52:00,17.0,4.0,30.54,ESE,112,0.0,0.0,55,0.00,,,0.00,,2013-01-24 20:52:00,
2013-01-24 16:03:00,18.0,4.0,30.54,SSE,157,0.0,0.0,54,0.00,,,0.00,,2013-01-24 21:03:00,
2013-01-24 16:12:00,19.0,5.0,30.54,SSE,157,2.0,2.0,54,0.00,,,0.00,,2013-01-24 21:12:00,
2013-01-24 16:22:00,19.0,5.0,30.54,SSE,157,2.0,2.0,54,0.00,,,0.00,,2013-01-24 21:22:00,
2013-01-24 16:33:00,19.0,5.0,30.53,SSE,157,0.0,1.0,53,0.00,,,0.00,,2013-01-24 21:33:00,
2013-01-24 16:43:00,19.0,5.0,30.53,SSE,157,0.0,1.0,53,0.00,,,0.00,,2013-01-24 21:43:00,
2013-01-24 16:52:00,20.0,6.0,30.54,SSE,157,0.0,2.0,53,0.00,,,0.00,,2013-01-24 21:52:00,
2013-01-24 17:03:00,21.0,7.0,30.52,East,90,0.0,0.0,53,0.00,,,0.00,,2013-01-24 22:03:00,
2013-01-24 17:12:00,21.0,7.0,30.52,East,90,0.0,0.0,53,0.00,,,0.00,,2013-01-24 22:12:00,
2013-01-24 17:22:00,21.0,7.0,30.53,East,90,2.0,2.0,53,0.00,,,0.00,,2013-01-24 22:22:00,
2013-01-24 17:33:00,21.0,7.0,30.53,ESE,112,0.0,0.0,54,0.00,,,0.00,,2013-01-24 22:33:00,
2013-01-24 17:42:00,21.0,7.0,30.53,ESE,112,0.0,0.0,54,0.00,,,0.00,,2013-01-24 22:42:00,
2013-01-24 17:52:00,20.0,6.0,30.54,ESE,112,0.0,0.0,54,0.00,,,0.00,,2013-01-24 22:52:00,
2013-01-24 18:03:00,20.0,6.0,30.52,ESE,112,0.0,0.0,55,0.00,,,0.00,,2013-01-24 23:03:00,
2013-01-24 18:12:00,20.0,6.0,30.52,ESE,112,0.0,0.0,55,0.00,,,0.00,,2013-01-24 23:12:00,
2013-01-24 18:22:00,20.0,6.0,30.52,ESE,112,0.0,0.0,55,0.00,,,0.00,,2013-01-24 23:22:00,
2013-01-24 18:32:00,20.0,6.0,30.52,ESE,112,0.0,0.0,55,0.00,,,0.00,,2013-01-24 23:32:00,
2013-01-24 18:42:00,20.0,6.0,30.52,ESE,112,0.0,0.0,55,0.00,,,0.00,,2013-01-24 23:42:00,
2013-01-24 18:52:00,19.0,6.0,30.52,East,90,0.0,0.0,55,0.00,,,0.00,,2013-01-24 23:52:00,
2013-01-24 19:02:00,19.0,6.0,30.52,East,90,0.0,0.0,55,0.00,,,0.00,,2013-01-25 00:02:00,
2013-01-24 19:12:00,19.0,6.0,30.52,East,90,0.0,0.0,55,0.00,,,0.00,,2013-01-25 00:12:00,
2013-01-24 19:22:00,19.0,6.0,30.51,East,90,0.0,1.0,56,0.00,,,0.00,,2013-01-25 00:22:00,
2013-01-24 19:32:00,19.0,6.0,30.52,SE,135,0.0,0.0,56,0.00,,,0.00,,2013-01-25 00:32:00,
2013-01-24 19:42:00,19.0,6.0,30.52,SE,135,0.0,0.0,56,0.00,,,0.00,,2013-01-25 00:42:00,
2013-01-24 19:52:00,19.0,6.0,30.52,East,90,0.0,0.0,57,0.00,,,0.00,,2013-01-25 00:52:00,
2013-01-24 20:02:00,19.0,6.0,30.50,ESE,112,0.0,0.0,57,0.00,,,0.00,,2013-01-25 01:02:00,
2013-01-24 20:12:00,19.0,6.0,30.50,ESE,112,0.0,0.0,57,0.00,,,0.00,,2013-01-25 01:12:00,
2013-01-24 20:22:00,19.0,6.0,30.50,ESE,112,0.0,0.0,57,0.00,,,0.00,,2013-01-25 01:22:00,
2013-01-24 20:32:00,19.0,7.0,30.49,ESE,112,0.0,0.0,58,0.00,,,0.00,,2013-01-25 01:32:00,
2013-01-24 20:42:00,19.0,7.0,30.49,ESE,112,0.0,0.0,58,0.00,,,0.00,,2013-01-25 01:42:00,
2013-01-24 20:52:00,19.0,7.0,30.49,East,90,0.0,1.0,58,0.00,,,0.00,,2013-01-25 01:52:00,
2013-01-24 21:02:00,19.0,7.0,30.48,East,90,1.0,1.0,59,0.00,,,0.00,,2013-01-25 02:02:00,
2013-01-24 21:11:00,19.0,7.0,30.48,East,90,1.0,1.0,59,0.00,,,0.00,,2013-01-25 02:11:00,
2013-01-24 21:22:00,19.0,7.0,30.48,East,90,0.0,1.0,59,0.00,,,0.00,,2013-01-25 02:22:00,
2013-01-24 21:32:00,19.0,7.0,30.47,ESE,112,0.0,3.0,59,0.00,,,0.00,,2013-01-25 02:32:00,
2013-01-24 21:42:00,19.0,7.0,30.47,SE,135,2.0,3.0,59,0.00,,,0.00,,2013-01-25 02:42:00,
2013-01-24 21:52:00,19.0,7.0,30.47,SE,135,2.0,3.0,59,0.00,,,0.00,,2013-01-25 02:52:00,
2013-01-24 22:02:00,19.0,7.0,30.47,ESE,112,0.0,0.0,59,0.00,,,0.00,,2013-01-25 03:02:00,
2013-01-24 22:12:00,19.0,7.0,30.46,SE,135,0.0,0.0,59,0.00,,,0.00,,2013-01-25 03:12:00,
2013-01-24 22:22:00,19.0,7.0,30.46,SE,135,0.0,0.0,59,0.00,,,0.00,,2013-01-25 03:22:00,
2013-01-24 22:33:00,19.0,7.0,30.45,ENE,67,3.0,3.0,60,0.00,,,0.00,,2013-01-25 03:33:00,
2013-01-24 22:42:00,19.0,7.0,30.45,ENE,67,3.0,3.0,60,0.00,,,0.00,,2013-01-25 03:42:00,
2013-01-24 22:52:00,19.0,7.0,30.46,East,90,0.0,3.0,60,0.00,,,0.00,,2013-01-25 03:52:00,
2013-01-24 23:02:00,19.0,8.0,30.46,SSE,157,3.0,3.0,61,0.00,,,0.00,,2013-01-25 04:02:00,
2013-01-24 23:12:00,19.0,8.0,30.45,East,90,3.0,3.0,61,0.00,,,0.00,,2013-01-25 04:12:00,
2013-01-24 23:22:00,19.0,8.0,30.45,East,90,3.0,3.0,61,0.00,,,0.00,,2013-01-25 04:22:00,
2013-01-24 23:32:00,19.0,8.0,30.44,SSE,157,0.0,1.0,62,0.00,,,0.00,,2013-01-25 04:32:00,
2013-01-24 23:42:00,19.0,8.0,30.44,SSE,157,0.0,1.0,62,0.00,,,0.00,,2013-01-25 04:42:00,
2013-01-24 23:51:00,19.0,8.0,30.44,East,90,0.0,0.0,62,0.00,,,0.00,,2013-01-25 04:51:00,